SIA412 WIII-WPDL

Flight info

Callsign SIA412
Flight time 2h 50m
Altitude 41000
Route CA T3 ANY G461 SBR W34 AGUNG W43 MUBOT W42 MUBRA DCT JEMZE JEMZE4V
Aircraft A359/H-SDE2E3GHIJ3J4J5LM1ORWXY/LB1D1

Departure

Time 2026-04-28 12:35
Airport Soekarno-Hatta International Airport (WIII)

Arrival

Time 2026-04-28 15:25
Airport Presidente Nicolau Lobato International Airport (WPDL)
Time Latitude Longitude Altitude Speed Heading
2026-04-28 12:15 -6.12776 106.65956 34 ft 0 kts 229°
2026-04-28 12:27 -6.12773 106.65960 33 ft 2 kts 229°
2026-04-28 12:27 -6.12766 106.65968 32 ft 1 kts 229°
2026-04-28 12:27 -6.12760 106.65975 33 ft 2 kts 216°
2026-04-28 12:27 -6.12748 106.65982 33 ft 2 kts 186°
2026-04-28 12:28 -6.12735 106.65982 33 ft 2 kts 156°
2026-04-28 12:28 -6.12724 106.65976 29 ft 0 kts 128°
2026-04-28 12:30 -6.12725 106.65977 29 ft 2 kts 128°
2026-04-28 12:30 -6.12772 106.66028 33 ft 19 kts 136°
2026-04-28 12:30 -6.12880 106.66114 33 ft 19 kts 159°
2026-04-28 12:31 -6.13009 106.66162 33 ft 21 kts 158°
2026-04-28 12:31 -6.13149 106.66220 33 ft 23 kts 158°
2026-04-28 12:31 -6.13285 106.66248 33 ft 13 kts 204°
2026-04-28 12:31 -6.13320 106.66196 33 ft 10 kts 246°
2026-04-28 12:32 -6.13377 106.66056 33 ft 34 kts 248°
2026-04-28 12:32 -6.13488 106.65783 34 ft 45 kts 249°
2026-04-28 12:32 -6.13601 106.65487 35 ft 45 kts 249°
2026-04-28 12:32 -6.13713 106.65195 36 ft 46 kts 249°
2026-04-28 12:33 -6.13830 106.64899 38 ft 45 kts 246°
2026-04-28 12:33 -6.13953 106.64607 39 ft 45 kts 247°
2026-04-28 12:33 -6.14071 106.64312 40 ft 45 kts 246°
2026-04-28 12:33 -6.14141 106.64263 40 ft 3 kts 150°
2026-04-28 12:34 -6.14173 106.64297 41 ft 9 kts 125°
2026-04-28 12:34 -6.14213 106.64371 40 ft 14 kts 106°
2026-04-28 12:34 -6.14200 106.64481 38 ft 18 kts 71°
2026-04-28 12:34 -6.14088 106.64775 37 ft 92 kts 67°
2026-04-28 12:35 -6.13727 106.65673 174 ft 169 kts 68°
2026-04-28 12:35 -6.13277 106.66816 1176 ft 181 kts 68°
2026-04-28 12:35 -6.12768 106.68097 1963 ft 210 kts 68°
2026-04-28 12:35 -6.12199 106.69525 2229 ft 231 kts 69°
2026-04-28 12:36 -6.11633 106.71113 2472 ft 251 kts 76°
2026-04-28 12:36 -6.11540 106.72883 2994 ft 258 kts 99°
2026-04-28 12:36 -6.12210 106.74526 3627 ft 261 kts 121°
2026-04-28 12:36 -6.13239 106.76036 4292 ft 263 kts 125°
2026-04-28 12:37 -6.14331 106.77525 4935 ft 266 kts 126°
2026-04-28 12:37 -6.15439 106.79021 5573 ft 268 kts 126°
2026-04-28 12:37 -6.16557 106.80533 6176 ft 271 kts 126°
2026-04-28 12:37 -6.17688 106.82062 6759 ft 274 kts 126°
2026-04-28 12:38 -6.18829 106.83605 7334 ft 276 kts 126°
2026-04-28 12:38 -6.19975 106.85155 7926 ft 277 kts 125°
2026-04-28 12:38 -6.21130 106.86719 8510 ft 280 kts 125°
2026-04-28 12:38 -6.22293 106.88293 9079 ft 282 kts 125°
2026-04-28 12:39 -6.23452 106.89863 9671 ft 284 kts 125°
2026-04-28 12:39 -6.24631 106.91468 10157 ft 288 kts 124°
2026-04-28 12:39 -6.25742 106.93198 10399 ft 301 kts 121°
2026-04-28 12:39 -6.26866 106.95033 10596 ft 315 kts 120°
2026-04-28 12:40 -6.28028 106.96955 10787 ft 328 kts 120°
2026-04-28 12:40 -6.29232 106.98960 10982 ft 340 kts 120°
2026-04-28 12:40 -6.30472 107.01032 11156 ft 351 kts 120°
2026-04-28 12:40 -6.31742 107.03157 11456 ft 357 kts 120°
2026-04-28 12:41 -6.33027 107.05308 11843 ft 360 kts 120°
2026-04-28 12:41 -6.34322 107.07478 12229 ft 363 kts 120°
2026-04-28 12:41 -6.35607 107.09632 12608 ft 366 kts 120°
2026-04-28 12:41 -6.36920 107.11835 12983 ft 368 kts 120°
2026-04-28 12:42 -6.38240 107.14048 13358 ft 371 kts 120°
2026-04-28 12:42 -6.39570 107.16280 13728 ft 373 kts 120°
2026-04-28 12:42 -6.40908 107.18525 14063 ft 375 kts 120°
2026-04-28 12:42 -6.42253 107.20782 14386 ft 377 kts 120°
2026-04-28 12:43 -6.43605 107.23052 14712 ft 379 kts 120°
2026-04-28 12:43 -6.44966 107.25335 15038 ft 381 kts 120°
2026-04-28 12:43 -6.46313 107.27597 15360 ft 383 kts 120°
2026-04-28 12:43 -6.47685 107.29901 15692 ft 385 kts 120°
2026-04-28 12:44 -6.49066 107.32221 16014 ft 387 kts 120°
2026-04-28 12:44 -6.50452 107.34548 16340 ft 390 kts 121°
2026-04-28 12:44 -6.51848 107.36893 16667 ft 392 kts 121°
2026-04-28 12:44 -6.53250 107.39248 16972 ft 394 kts 121°
2026-04-28 12:45 -6.54659 107.41615 17355 ft 395 kts 120°
2026-04-28 12:45 -6.55980 107.44039 17662 ft 396 kts 114°
2026-04-28 12:45 -6.56828 107.46673 17967 ft 398 kts 101°
2026-04-28 12:45 -6.57238 107.49430 18264 ft 400 kts 97°
2026-04-28 12:46 -6.57558 107.52172 18521 ft 401 kts 96°
2026-04-28 12:46 -6.57879 107.54965 18794 ft 403 kts 97°
2026-04-28 12:46 -6.58206 107.57774 19064 ft 405 kts 97°
2026-04-28 12:46 -6.58538 107.60587 19335 ft 406 kts 97°
2026-04-28 12:47 -6.58872 107.63409 19607 ft 407 kts 97°
2026-04-28 12:47 -6.59210 107.66247 19857 ft 409 kts 97°
2026-04-28 12:47 -6.59548 107.69089 20129 ft 411 kts 97°
2026-04-28 12:47 -6.59888 107.71946 20399 ft 412 kts 97°
2026-04-28 12:48 -6.60225 107.74773 20653 ft 414 kts 97°
2026-04-28 12:48 -6.60568 107.77655 20869 ft 416 kts 97°
2026-04-28 12:48 -6.60913 107.80551 21126 ft 418 kts 97°
2026-04-28 12:48 -6.61258 107.83456 21391 ft 419 kts 97°
2026-04-28 12:49 -6.61605 107.86370 21651 ft 420 kts 97°
2026-04-28 12:49 -6.61952 107.89293 21898 ft 422 kts 97°
2026-04-28 12:49 -6.62301 107.92228 22143 ft 423 kts 97°
2026-04-28 12:49 -6.62650 107.95170 22381 ft 425 kts 97°
2026-04-28 12:50 -6.62995 107.98088 22617 ft 426 kts 97°
2026-04-28 12:50 -6.63345 108.01051 22856 ft 428 kts 97°
2026-04-28 12:50 -6.63697 108.04032 23081 ft 429 kts 98°
2026-04-28 12:50 -6.64048 108.07014 23319 ft 431 kts 98°
2026-04-28 12:51 -6.64401 108.10007 23541 ft 432 kts 98°
2026-04-28 12:51 -6.64756 108.13016 23730 ft 434 kts 98°
2026-04-28 12:51 -6.65111 108.16031 23932 ft 435 kts 97°
2026-04-28 12:51 -6.65467 108.19053 24124 ft 436 kts 97°
2026-04-28 12:52 -6.65825 108.22092 24325 ft 438 kts 97°
2026-04-28 12:52 -6.66178 108.25095 24518 ft 439 kts 97°
2026-04-28 12:52 -6.66537 108.28149 24713 ft 440 kts 97°
2026-04-28 12:52 -6.66897 108.31211 24908 ft 442 kts 97°
2026-04-28 12:53 -6.67258 108.34288 25108 ft 443 kts 97°
2026-04-28 12:53 -6.67620 108.37372 25315 ft 445 kts 97°
2026-04-28 12:53 -6.67983 108.40464 25506 ft 446 kts 97°
2026-04-28 12:53 -6.68347 108.43571 25699 ft 448 kts 97°
2026-04-28 12:54 -6.68713 108.46686 25868 ft 450 kts 97°
2026-04-28 12:54 -6.69079 108.49810 26112 ft 450 kts 97°
2026-04-28 12:54 -6.69438 108.52881 26564 ft 445 kts 96°
2026-04-28 12:54 -6.69797 108.55952 27045 ft 440 kts 96°
2026-04-28 12:55 -6.70179 108.58988 27543 ft 435 kts 97°
2026-04-28 12:55 -6.70628 108.61991 27988 ft 432 kts 98°
2026-04-28 12:55 -6.71106 108.64961 28438 ft 429 kts 99°
2026-04-28 12:55 -6.71590 108.67913 28909 ft 426 kts 98°
2026-04-28 12:56 -6.72065 108.70843 29398 ft 423 kts 98°
2026-04-28 12:56 -6.72528 108.73755 29859 ft 421 kts 98°
2026-04-28 12:56 -6.72975 108.76617 30274 ft 418 kts 98°
2026-04-28 12:56 -6.73420 108.79496 30695 ft 416 kts 98°
2026-04-28 12:57 -6.73861 108.82366 31106 ft 414 kts 98°
2026-04-28 12:57 -6.74298 108.85222 31527 ft 412 kts 98°
2026-04-28 12:57 -6.74733 108.88066 31960 ft 410 kts 98°
2026-04-28 12:57 -6.75165 108.90893 32404 ft 407 kts 98°
2026-04-28 12:58 -6.75594 108.93701 32841 ft 405 kts 98°
2026-04-28 12:58 -6.76025 108.96519 33047 ft 410 kts 98°
2026-04-28 12:58 -6.76462 108.99375 33181 ft 416 kts 98°
2026-04-28 12:58 -6.76904 109.02267 33301 ft 422 kts 98°
2026-04-28 12:59 -6.77347 109.05167 33423 ft 428 kts 98°
2026-04-28 12:59 -6.77802 109.08144 33552 ft 434 kts 98°
2026-04-28 12:59 -6.78263 109.11163 33673 ft 440 kts 98°
2026-04-28 12:59 -6.78731 109.14221 33783 ft 445 kts 98°
2026-04-28 13:00 -6.79205 109.17323 33902 ft 451 kts 98°
2026-04-28 13:00 -6.79683 109.20459 34011 ft 457 kts 98°
2026-04-28 13:00 -6.80168 109.23638 34118 ft 462 kts 98°
2026-04-28 13:01 -6.81147 109.30054 34319 ft 473 kts 98°
2026-04-28 13:01 -6.81648 109.33345 34435 ft 479 kts 98°
2026-04-28 13:01 -6.82155 109.36675 34557 ft 485 kts 98°
2026-04-28 13:01 -6.82670 109.40055 34680 ft 491 kts 98°
2026-04-28 13:02 -6.83189 109.43465 34792 ft 496 kts 98°
2026-04-28 13:02 -6.83712 109.46903 34995 ft 499 kts 98°
2026-04-28 13:02 -6.84238 109.50360 35293 ft 499 kts 98°
2026-04-28 13:02 -6.84762 109.53807 35618 ft 499 kts 98°
2026-04-28 13:03 -6.85285 109.57254 35931 ft 499 kts 98°
2026-04-28 13:03 -6.85802 109.60659 36237 ft 498 kts 98°
2026-04-28 13:03 -6.86325 109.64106 36550 ft 498 kts 98°
2026-04-28 13:03 -6.86847 109.67548 36869 ft 497 kts 98°
2026-04-28 13:04 -6.87367 109.70984 37211 ft 497 kts 98°
2026-04-28 13:04 -6.87888 109.74422 37509 ft 497 kts 98°
2026-04-28 13:04 -6.88407 109.77854 37819 ft 496 kts 98°
2026-04-28 13:04 -6.88927 109.81285 38136 ft 495 kts 98°
2026-04-28 13:05 -6.89442 109.84690 38581 ft 491 kts 98°
2026-04-28 13:05 -6.89948 109.88042 38848 ft 490 kts 98°
2026-04-28 13:05 -6.90460 109.91428 39075 ft 490 kts 98°
2026-04-28 13:05 -6.90971 109.94815 39296 ft 489 kts 98°
2026-04-28 13:06 -6.91481 109.98194 39532 ft 488 kts 98°
2026-04-28 13:06 -6.91990 110.01566 39756 ft 487 kts 98°
2026-04-28 13:06 -6.92498 110.04935 39971 ft 487 kts 98°
2026-04-28 13:06 -6.93005 110.08298 40188 ft 486 kts 98°
2026-04-28 13:07 -6.93511 110.11662 40408 ft 485 kts 98°
2026-04-28 13:07 -6.94010 110.14970 40623 ft 484 kts 98°
2026-04-28 13:07 -6.94513 110.18313 40826 ft 483 kts 98°
2026-04-28 13:08 -6.95518 110.24997 40854 ft 482 kts 98°
2026-04-28 13:08 -6.96520 110.31667 40855 ft 482 kts 98°
2026-04-28 13:09 -6.97386 110.38355 40855 ft 482 kts 92°
2026-04-28 13:09 -6.97622 110.45060 40857 ft 482 kts 91°
2026-04-28 13:10 -6.97747 110.51811 40854 ft 482 kts 91°
2026-04-28 13:10 -6.97852 110.58558 40853 ft 482 kts 91°
2026-04-28 13:11 -6.97964 110.65305 40844 ft 482 kts 91°
2026-04-28 13:11 -6.98083 110.72056 40843 ft 482 kts 91°
2026-04-28 13:12 -6.98201 110.78763 40844 ft 482 kts 91°
2026-04-28 13:12 -6.98319 110.85507 40847 ft 481 kts 91°
2026-04-28 13:13 -6.98436 110.92239 40849 ft 481 kts 91°
2026-04-28 13:13 -6.98551 110.98972 40847 ft 481 kts 91°
2026-04-28 13:14 -6.98665 111.05654 40854 ft 481 kts 91°
2026-04-28 13:14 -6.98779 111.12384 40853 ft 481 kts 91°
2026-04-28 13:15 -6.98891 111.19111 40853 ft 481 kts 91°
2026-04-28 13:15 -6.99003 111.25840 40859 ft 481 kts 91°
2026-04-28 13:16 -6.99113 111.32520 40856 ft 481 kts 91°
2026-04-28 13:16 -6.99247 111.39239 40856 ft 481 kts 93°
2026-04-28 13:17 -7.00407 111.45850 40861 ft 480 kts 104°
2026-04-28 13:17 -7.02171 111.52334 40861 ft 480 kts 106°
2026-04-28 13:18 -7.04016 111.58752 40861 ft 480 kts 106°
2026-04-28 13:18 -7.05870 111.65211 40864 ft 481 kts 106°
2026-04-28 13:19 -7.07709 111.71685 40863 ft 481 kts 106°
2026-04-28 13:19 -7.09543 111.78170 40863 ft 482 kts 106°
2026-04-28 13:20 -7.11375 111.84654 40860 ft 482 kts 106°
2026-04-28 13:20 -7.13196 111.91103 40863 ft 482 kts 106°
2026-04-28 13:21 -7.15028 111.97591 40864 ft 482 kts 106°
2026-04-28 13:21 -7.16860 112.04082 40861 ft 482 kts 106°
2026-04-28 13:22 -7.18691 112.10574 40864 ft 482 kts 106°
2026-04-28 13:22 -7.20507 112.17017 40865 ft 482 kts 106°
2026-04-28 13:23 -7.22339 112.23520 40864 ft 483 kts 106°
2026-04-28 13:23 -7.24173 112.30031 40863 ft 483 kts 106°
2026-04-28 13:24 -7.26004 112.36539 40863 ft 483 kts 106°
2026-04-28 13:24 -7.27821 112.43002 40864 ft 483 kts 106°
2026-04-28 13:25 -7.29650 112.49507 40867 ft 483 kts 105°
2026-04-28 13:25 -7.31477 112.56013 40876 ft 483 kts 105°
2026-04-28 13:26 -7.33303 112.62517 40880 ft 482 kts 105°
2026-04-28 13:26 -7.35116 112.68982 40882 ft 483 kts 105°
2026-04-28 13:27 -7.36940 112.75488 40887 ft 483 kts 106°
2026-04-28 13:27 -7.38634 112.82053 40882 ft 483 kts 102°
2026-04-28 13:28 -7.39982 112.88675 40881 ft 483 kts 101°
2026-04-28 13:28 -7.41310 112.95298 40878 ft 482 kts 102°
2026-04-28 13:29 -7.42681 113.01860 40878 ft 482 kts 102°
2026-04-28 13:29 -7.44089 113.08467 40875 ft 482 kts 102°
2026-04-28 13:30 -7.45500 113.15068 40877 ft 481 kts 102°
2026-04-28 13:30 -7.46895 113.21604 40877 ft 480 kts 102°
2026-04-28 13:31 -7.48994 113.31463 40874 ft 480 kts 102°
2026-04-28 13:31 -7.50391 113.38033 40875 ft 480 kts 102°
2026-04-28 13:32 -7.51788 113.44609 40875 ft 480 kts 102°
2026-04-28 13:32 -7.53175 113.51146 40886 ft 480 kts 102°
2026-04-28 13:33 -7.54572 113.57727 40888 ft 480 kts 102°
2026-04-28 13:33 -7.55967 113.64310 40890 ft 480 kts 102°
2026-04-28 13:34 -7.57362 113.70897 40888 ft 481 kts 102°
2026-04-28 13:34 -7.58746 113.77433 40890 ft 480 kts 102°
2026-04-28 13:35 -7.60135 113.84002 40891 ft 478 kts 102°
2026-04-28 13:35 -7.61519 113.90552 40888 ft 478 kts 102°
2026-04-28 13:36 -7.62901 113.97097 40887 ft 477 kts 102°
2026-04-28 13:36 -7.64277 114.03615 40904 ft 480 kts 102°
2026-04-28 13:37 -7.65665 114.10203 40900 ft 480 kts 102°
2026-04-28 13:37 -7.67049 114.16771 40899 ft 478 kts 102°
2026-04-28 13:38 -7.68428 114.23321 40900 ft 478 kts 102°
2026-04-28 13:38 -7.69808 114.29882 40902 ft 478 kts 102°
2026-04-28 13:39 -7.71177 114.36394 40900 ft 478 kts 102°
2026-04-28 13:39 -7.72560 114.42954 40898 ft 479 kts 103°
2026-04-28 13:40 -7.73967 114.49520 40907 ft 479 kts 103°
2026-04-28 13:40 -7.75373 114.56090 40899 ft 479 kts 103°
2026-04-28 13:41 -7.76765 114.62618 40899 ft 480 kts 102°
2026-04-28 13:41 -7.78165 114.69196 40901 ft 480 kts 102°
2026-04-28 13:42 -7.79563 114.75778 40900 ft 479 kts 102°
2026-04-28 13:42 -7.80960 114.82353 40901 ft 480 kts 102°
2026-04-28 13:43 -7.82346 114.88886 40901 ft 480 kts 102°
2026-04-28 13:43 -7.83741 114.95461 40901 ft 480 kts 102°
2026-04-28 13:44 -7.85135 115.02039 40900 ft 480 kts 102°
2026-04-28 13:44 -7.86530 115.08628 40900 ft 480 kts 102°
2026-04-28 13:45 -7.87914 115.15171 40898 ft 480 kts 102°
2026-04-28 13:45 -7.89307 115.21762 40899 ft 481 kts 102°
2026-04-28 13:46 -7.90703 115.28361 40899 ft 483 kts 102°
2026-04-28 13:46 -7.92104 115.35004 40902 ft 484 kts 102°
2026-04-28 13:47 -7.93493 115.41596 40900 ft 483 kts 102°
2026-04-28 13:47 -7.94890 115.48225 40917 ft 483 kts 102°
2026-04-28 13:48 -7.96286 115.54856 40908 ft 483 kts 102°
2026-04-28 13:48 -7.97680 115.61485 40911 ft 483 kts 102°
2026-04-28 13:49 -7.99073 115.68111 40904 ft 482 kts 102°
2026-04-28 13:49 -8.00687 115.74624 40905 ft 482 kts 106°
2026-04-28 13:50 -8.02618 115.81093 40904 ft 481 kts 107°
2026-04-28 13:50 -8.04533 115.87563 40905 ft 481 kts 106°
2026-04-28 13:51 -8.06391 115.94049 40902 ft 482 kts 106°
2026-04-28 13:51 -8.08213 116.00509 40902 ft 482 kts 105°
2026-04-28 13:52 -8.10044 116.07015 40906 ft 482 kts 105°
2026-04-28 13:52 -8.11876 116.13522 40907 ft 482 kts 105°
2026-04-28 13:53 -8.13709 116.20030 40906 ft 482 kts 105°
2026-04-28 13:53 -8.15529 116.26494 40908 ft 482 kts 105°
2026-04-28 13:54 -8.17364 116.33011 40915 ft 484 kts 105°
2026-04-28 13:54 -8.19203 116.39554 40917 ft 485 kts 105°
2026-04-28 13:55 -8.21045 116.46110 40919 ft 485 kts 105°
2026-04-28 13:55 -8.22885 116.52664 40917 ft 485 kts 105°
2026-04-28 13:56 -8.24713 116.59179 40914 ft 486 kts 105°
2026-04-28 13:56 -8.26555 116.65748 40909 ft 487 kts 105°
2026-04-28 13:57 -8.28398 116.72323 40909 ft 487 kts 105°
2026-04-28 13:57 -8.30240 116.78899 40907 ft 487 kts 105°
2026-04-28 13:58 -8.32068 116.85434 40908 ft 487 kts 105°
2026-04-28 13:58 -8.33909 116.92016 40907 ft 487 kts 105°
2026-04-28 13:59 -8.35751 116.98608 40907 ft 488 kts 105°
2026-04-28 13:59 -8.37592 117.05198 40905 ft 488 kts 105°
2026-04-28 14:00 -8.39420 117.11749 40916 ft 488 kts 105°
2026-04-28 14:00 -8.41260 117.18346 40919 ft 488 kts 105°
2026-04-28 14:01 -8.43097 117.24938 40914 ft 487 kts 105°
2026-04-28 14:01 -8.44934 117.31535 40913 ft 488 kts 105°
2026-04-28 14:02 -8.46744 117.38104 40911 ft 488 kts 103°
2026-04-28 14:02 -8.47630 117.44884 40911 ft 487 kts 93°
2026-04-28 14:03 -8.48012 117.51718 40916 ft 487 kts 92°
2026-04-28 14:03 -8.48311 117.58546 40916 ft 486 kts 92°
2026-04-28 14:04 -8.48614 117.65325 40916 ft 486 kts 92°
2026-04-28 14:04 -8.48932 117.72141 40920 ft 486 kts 92°
2026-04-28 14:05 -8.49256 117.78964 40922 ft 486 kts 92°
2026-04-28 14:05 -8.49579 117.85784 40922 ft 486 kts 92°
2026-04-28 14:06 -8.49897 117.92561 40922 ft 486 kts 92°
2026-04-28 14:06 -8.50217 117.99382 40922 ft 486 kts 92°
2026-04-28 14:07 -8.50535 118.06201 40926 ft 486 kts 92°
2026-04-28 14:07 -8.50853 118.13030 40922 ft 487 kts 92°
2026-04-28 14:08 -8.51169 118.19867 40925 ft 487 kts 92°
2026-04-28 14:08 -8.51432 118.25555 40927 ft 488 kts 92°
2026-04-28 14:09 -8.51797 118.33505 40923 ft 487 kts 92°
2026-04-28 14:09 -8.52111 118.40346 40925 ft 488 kts 91°
2026-04-28 14:10 -8.52423 118.47194 40923 ft 488 kts 91°
2026-04-28 14:10 -8.52734 118.54048 40923 ft 488 kts 91°
2026-04-28 14:11 -8.53043 118.60855 40926 ft 488 kts 91°
2026-04-28 14:11 -8.53352 118.67713 40924 ft 488 kts 92°
2026-04-28 14:12 -8.53666 118.74553 40926 ft 487 kts 92°
2026-04-28 14:12 -8.53995 118.81382 40924 ft 486 kts 92°
2026-04-28 14:13 -8.54320 118.88160 40923 ft 486 kts 92°
2026-04-28 14:13 -8.54644 118.94984 40922 ft 486 kts 92°
2026-04-28 14:14 -8.54965 119.01802 40920 ft 484 kts 91°
2026-04-28 14:14 -8.55282 119.08581 40923 ft 483 kts 91°
2026-04-28 14:15 -8.55596 119.15311 40923 ft 483 kts 92°
2026-04-28 14:15 -8.55911 119.22086 40922 ft 483 kts 91°
2026-04-28 14:16 -8.56226 119.28867 40918 ft 484 kts 91°
2026-04-28 14:16 -8.56540 119.35665 40915 ft 485 kts 91°
2026-04-28 14:17 -8.56848 119.42478 40918 ft 485 kts 91°
2026-04-28 14:17 -8.57091 119.49245 40918 ft 485 kts 91°
2026-04-28 14:18 -8.57320 119.56055 40919 ft 485 kts 91°
2026-04-28 14:18 -8.57556 119.62871 40923 ft 486 kts 91°
2026-04-28 14:19 -8.57798 119.69694 40922 ft 486 kts 91°
2026-04-28 14:19 -8.58041 119.76517 40925 ft 486 kts 91°
2026-04-28 14:20 -8.58281 119.83291 40929 ft 486 kts 91°
2026-04-28 14:20 -8.58521 119.90103 40924 ft 484 kts 91°
2026-04-28 14:21 -8.58759 119.96899 40937 ft 484 kts 91°
2026-04-28 14:21 -8.58995 120.03694 40936 ft 484 kts 91°
2026-04-28 14:22 -8.59229 120.10442 40949 ft 484 kts 91°
2026-04-28 14:22 -8.59464 120.17243 40953 ft 485 kts 91°
2026-04-28 14:23 -8.59658 120.22905 40950 ft 485 kts 91°
2026-04-28 14:23 -8.59891 120.29719 40956 ft 485 kts 91°
2026-04-28 14:24 -8.60160 120.37641 40957 ft 485 kts 91°
2026-04-28 14:24 -8.60353 120.43352 40962 ft 485 kts 91°
2026-04-28 14:25 -8.60569 120.50121 40963 ft 485 kts 91°
2026-04-28 14:25 -8.60700 120.56938 40964 ft 485 kts 90°
2026-04-28 14:26 -8.60809 120.63756 40962 ft 485 kts 90°
2026-04-28 14:26 -8.60928 120.70571 40963 ft 485 kts 90°
2026-04-28 14:27 -8.61077 120.78494 40964 ft 485 kts 90°
2026-04-28 14:27 -8.61184 120.84162 40961 ft 485 kts 91°
2026-04-28 14:28 -8.61312 120.90978 40963 ft 485 kts 90°
2026-04-28 14:28 -8.61438 120.97799 40961 ft 485 kts 91°
2026-04-28 14:29 -8.61562 121.04601 40961 ft 483 kts 90°
2026-04-28 14:29 -8.61684 121.11341 40952 ft 483 kts 90°
2026-04-28 14:30 -8.61805 121.18129 40953 ft 483 kts 90°
2026-04-28 14:30 -8.61925 121.24914 40955 ft 483 kts 90°
2026-04-28 14:31 -8.62044 121.31697 40938 ft 483 kts 90°
2026-04-28 14:31 -8.62162 121.38483 40941 ft 483 kts 90°
2026-04-28 14:32 -8.62278 121.45218 40935 ft 483 kts 90°
2026-04-28 14:32 -8.62394 121.52004 40941 ft 483 kts 90°
2026-04-28 14:33 -8.62508 121.58785 40939 ft 483 kts 90°
2026-04-28 14:33 -8.62621 121.65565 40935 ft 483 kts 90°
2026-04-28 14:34 -8.62791 121.75691 40943 ft 482 kts 90°
2026-04-28 14:35 -8.62970 121.82466 40943 ft 483 kts 91°
2026-04-28 14:35 -8.63172 121.89248 40941 ft 483 kts 91°
2026-04-28 14:36 -8.63365 121.96026 40948 ft 483 kts 91°
2026-04-28 14:36 -8.63549 122.02761 40939 ft 483 kts 91°
2026-04-28 14:37 -8.63729 122.09543 40943 ft 483 kts 91°
2026-04-28 14:37 -8.63909 122.16345 40936 ft 484 kts 91°
2026-04-28 14:38 -8.64089 122.23152 40938 ft 485 kts 91°
2026-04-28 14:38 -8.64095 122.29911 40930 ft 484 kts 87°
2026-04-28 14:39 -8.63808 122.36710 40932 ft 484 kts 87°
2026-04-28 14:39 -8.63521 122.43499 40931 ft 483 kts 87°
2026-04-28 14:40 -8.63285 122.50285 40930 ft 483 kts 87°
2026-04-28 14:40 -8.63071 122.57076 40930 ft 484 kts 87°
2026-04-28 14:41 -8.62861 122.63827 40928 ft 484 kts 87°
2026-04-28 14:41 -8.62646 122.70631 40940 ft 485 kts 87°
2026-04-28 14:42 -8.62428 122.77435 40934 ft 485 kts 87°
2026-04-28 14:42 -8.62208 122.84243 40928 ft 485 kts 87°
2026-04-28 14:43 -8.61988 122.91043 40929 ft 485 kts 87°
2026-04-28 14:43 -8.61767 122.97813 40932 ft 485 kts 87°
2026-04-28 14:44 -8.61544 123.04632 40929 ft 486 kts 87°
2026-04-28 14:44 -8.61319 123.11455 40930 ft 486 kts 87°
2026-04-28 14:45 -8.61093 123.18272 40931 ft 486 kts 87°
2026-04-28 14:45 -8.60868 123.25048 40934 ft 486 kts 87°
2026-04-28 14:46 -8.60640 123.31859 40927 ft 486 kts 87°
2026-04-28 14:46 -8.60410 123.38686 40936 ft 486 kts 87°
2026-04-28 14:47 -8.60179 123.45503 40926 ft 486 kts 87°
2026-04-28 14:47 -8.59949 123.52278 40930 ft 486 kts 87°
2026-04-28 14:48 -8.59725 123.59093 40937 ft 486 kts 87°
2026-04-28 14:48 -8.59569 123.65917 40926 ft 486 kts 88°
2026-04-28 14:49 -8.59429 123.72745 40918 ft 486 kts 88°
2026-04-28 14:49 -8.59281 123.79572 40921 ft 486 kts 88°
2026-04-28 14:50 -8.59126 123.86350 40923 ft 486 kts 88°
2026-04-28 14:50 -8.58966 123.93172 40918 ft 486 kts 88°
2026-04-28 14:51 -8.58806 123.99989 40912 ft 484 kts 88°
2026-04-28 14:51 -8.58645 124.06769 40923 ft 482 kts 88°
2026-04-28 14:52 -8.58484 124.13534 40916 ft 482 kts 88°
2026-04-28 14:52 -8.58323 124.20255 40921 ft 482 kts 88°
2026-04-28 14:53 -8.58159 124.27032 40922 ft 483 kts 88°
2026-04-28 14:53 -8.57994 124.33817 40928 ft 484 kts 88°
2026-04-28 14:54 -8.57827 124.40613 40933 ft 484 kts 88°
2026-04-28 14:54 -8.57661 124.47358 40918 ft 484 kts 88°
2026-04-28 14:55 -8.57491 124.54161 40929 ft 485 kts 88°
2026-04-28 14:55 -8.57321 124.60975 40927 ft 485 kts 88°
2026-04-28 14:56 -8.57149 124.67794 40929 ft 485 kts 88°
2026-04-28 14:56 -8.56977 124.74564 40824 ft 485 kts 88°
2026-04-28 14:56 -8.56890 124.77967 40586 ft 484 kts 88°
2026-04-28 14:57 -8.56803 124.81368 40337 ft 485 kts 88°
2026-04-28 14:57 -8.56745 124.83623 40173 ft 485 kts 88°
2026-04-28 14:57 -8.56627 124.88185 39852 ft 486 kts 88°
2026-04-28 14:57 -8.56539 124.91599 39613 ft 487 kts 88°
2026-04-28 14:58 -8.56450 124.95020 39379 ft 487 kts 88°
2026-04-28 14:58 -8.56361 124.98446 39145 ft 488 kts 88°
2026-04-28 14:58 -8.56272 125.01825 38923 ft 488 kts 88°
2026-04-28 14:58 -8.56182 125.05256 38693 ft 489 kts 88°
2026-04-28 14:59 -8.56288 125.08697 38434 ft 490 kts 97°
2026-04-28 14:59 -8.57045 125.12051 38165 ft 491 kts 109°
2026-04-28 14:59 -8.58448 125.15193 37873 ft 491 kts 117°
2026-04-28 14:59 -8.60050 125.18231 37251 ft 489 kts 118°
2026-04-28 15:00 -8.61687 125.21256 36536 ft 490 kts 118°
2026-04-28 15:00 -8.63328 125.24279 35798 ft 492 kts 118°
2026-04-28 15:00 -8.64954 125.27277 35027 ft 495 kts 118°
2026-04-28 15:00 -8.66612 125.30340 34187 ft 500 kts 119°
2026-04-28 15:01 -8.68282 125.33426 33300 ft 501 kts 119°
2026-04-28 15:01 -8.69957 125.36522 32316 ft 503 kts 118°
2026-04-28 15:01 -8.71641 125.39636 31302 ft 506 kts 118°
2026-04-28 15:01 -8.73335 125.42769 30300 ft 509 kts 118°
2026-04-28 15:02 -8.75037 125.45919 29186 ft 512 kts 118°
2026-04-28 15:02 -8.76735 125.49063 28415 ft 506 kts 118°
2026-04-28 15:02 -8.78390 125.52128 27700 ft 501 kts 118°
2026-04-28 15:02 -8.80049 125.55200 26961 ft 496 kts 118°
2026-04-28 15:03 -8.81695 125.58249 26213 ft 491 kts 118°
2026-04-28 15:03 -8.83323 125.61266 25486 ft 488 kts 118°
2026-04-28 15:03 -8.84944 125.64270 24771 ft 485 kts 118°
2026-04-28 15:03 -8.86552 125.67250 24070 ft 481 kts 118°
2026-04-28 15:04 -8.88147 125.70209 23372 ft 477 kts 118°
2026-04-28 15:04 -8.89727 125.73140 22616 ft 472 kts 118°
2026-04-28 15:04 -8.91289 125.76037 21873 ft 467 kts 118°
2026-04-28 15:04 -8.92833 125.78903 21204 ft 460 kts 118°
2026-04-28 15:05 -8.94335 125.81691 20503 ft 455 kts 118°
2026-04-28 15:05 -8.95839 125.84485 19862 ft 449 kts 118°
2026-04-28 15:05 -8.97082 125.87354 19261 ft 441 kts 106°
2026-04-28 15:05 -8.97523 125.90378 18744 ft 433 kts 90°
2026-04-28 15:06 -8.97091 125.93377 17961 ft 432 kts 74°
2026-04-28 15:06 -8.95807 125.96101 17056 ft 426 kts 57°
2026-04-28 15:06 -8.93858 125.98301 15674 ft 419 kts 41°
2026-04-28 15:06 -8.91335 125.99759 14421 ft 416 kts 20°
2026-04-28 15:07 -8.88512 126.00199 14064 ft 414 kts
2026-04-28 15:07 -8.85693 125.99803 13834 ft 416 kts 345°
2026-04-28 15:07 -8.83043 125.98651 13583 ft 416 kts 329°
2026-04-28 15:07 -8.80818 125.96800 13324 ft 414 kts 312°
2026-04-28 15:08 -8.79220 125.94398 13088 ft 412 kts 295°
2026-04-28 15:08 -8.78379 125.91650 12847 ft 410 kts 278°
2026-04-28 15:08 -8.78151 125.88788 12695 ft 407 kts 274°
2026-04-28 15:08 -8.77895 125.85943 12461 ft 404 kts 275°
2026-04-28 15:09 -8.77651 125.83231 12449 ft 367 kts 274°
2026-04-28 15:09 -8.77452 125.80817 12477 ft 326 kts 274°
2026-04-28 15:09 -8.77289 125.78657 12396 ft 299 kts 273°
2026-04-28 15:09 -8.77190 125.77276 12338 ft 286 kts 273°
2026-04-28 15:10 -8.77005 125.74599 12193 ft 290 kts 273°
2026-04-28 15:10 -8.76870 125.72566 12067 ft 289 kts 273°
2026-04-28 15:10 -8.76736 125.70529 11995 ft 290 kts 273°
2026-04-28 15:10 -8.76604 125.68498 11988 ft 289 kts 273°
2026-04-28 15:11 -8.76473 125.66474 11987 ft 288 kts 273°
2026-04-28 15:11 -8.76342 125.64453 11989 ft 288 kts 273°
2026-04-28 15:11 -8.76211 125.62431 11987 ft 288 kts 273°
2026-04-28 15:11 -8.76082 125.60438 12000 ft 288 kts 273°
2026-04-28 15:12 -8.76009 125.58414 11994 ft 288 kts 270°
2026-04-28 15:12 -8.75986 125.56392 11987 ft 288 kts 270°
2026-04-28 15:12 -8.75962 125.54391 11851 ft 281 kts 270°
2026-04-28 15:12 -8.75932 125.52430 11596 ft 277 kts 270°
2026-04-28 15:13 -8.75900 125.50486 11301 ft 276 kts 270°
2026-04-28 15:13 -8.75995 125.48538 11119 ft 280 kts 262°
2026-04-28 15:13 -8.76275 125.46575 10878 ft 283 kts 260°
2026-04-28 15:13 -8.76587 125.44616 10513 ft 283 kts 260°
2026-04-28 15:14 -8.76891 125.42707 10328 ft 274 kts 260°
2026-04-28 15:14 -8.77185 125.40846 10121 ft 263 kts 260°
2026-04-28 15:14 -8.77470 125.39039 9735 ft 255 kts 260°
2026-04-28 15:14 -8.77745 125.37284 9478 ft 253 kts 261°
2026-04-28 15:15 -8.78021 125.35520 9247 ft 254 kts 261°
2026-04-28 15:15 -8.78294 125.33767 8944 ft 251 kts 261°
2026-04-28 15:15 -8.78566 125.32025 8683 ft 250 kts 261°
2026-04-28 15:15 -8.78827 125.30295 8412 ft 248 kts 262°
2026-04-28 15:16 -8.78738 125.28564 8158 ft 249 kts 286°
2026-04-28 15:16 -8.77860 125.27120 7792 ft 247 kts 320°
2026-04-28 15:16 -8.76398 125.26251 7498 ft 243 kts 338°
2026-04-28 15:16 -8.74839 125.25599 7199 ft 242 kts 339°
2026-04-28 15:17 -8.73281 125.24966 6895 ft 241 kts 339°
2026-04-28 15:17 -8.71732 125.24338 6588 ft 239 kts 341°
2026-04-28 15:17 -8.70115 125.24054 6331 ft 236 kts
2026-04-28 15:17 -8.68523 125.24323 6167 ft 227 kts 14°
2026-04-28 15:18 -8.67041 125.24681 5978 ft 212 kts 15°
2026-04-28 15:18 -8.65631 125.25028 5655 ft 205 kts 15°
2026-04-28 15:18 -8.64261 125.25362 5401 ft 202 kts 15°
2026-04-28 15:18 -8.62917 125.25686 5215 ft 200 kts 15°
2026-04-28 15:19 -8.61567 125.26009 4971 ft 199 kts 15°
2026-04-28 15:19 -8.60222 125.26359 4748 ft 199 kts 20°
2026-04-28 15:19 -8.59052 125.27065 4542 ft 195 kts 47°
2026-04-28 15:19 -8.58377 125.28229 4439 ft 193 kts 75°
2026-04-28 15:20 -8.58191 125.29553 4132 ft 190 kts 87°
2026-04-28 15:20 -8.58137 125.30886 3684 ft 190 kts 89°
2026-04-28 15:20 -8.58095 125.32155 3493 ft 174 kts 88°
2026-04-28 15:20 -8.58050 125.33338 3437 ft 166 kts 88°
2026-04-28 15:21 -8.58001 125.34502 3389 ft 164 kts 88°
2026-04-28 15:21 -8.57952 125.35612 3269 ft 154 kts 88°
2026-04-28 15:21 -8.57902 125.36682 3064 ft 150 kts 88°
2026-04-28 15:21 -8.57853 125.37714 2895 ft 144 kts 85°
2026-04-28 15:22 -8.57692 125.38703 2718 ft 141 kts 79°
2026-04-28 15:22 -8.57495 125.39671 2532 ft 141 kts 80°
2026-04-28 15:22 -8.57300 125.40639 2325 ft 141 kts 79°
2026-04-28 15:22 -8.57099 125.41606 2102 ft 141 kts 78°
2026-04-28 15:23 -8.56882 125.42557 1849 ft 140 kts 77°
2026-04-28 15:23 -8.56669 125.43510 1663 ft 139 kts 78°
2026-04-28 15:23 -8.56456 125.44470 1452 ft 141 kts 78°
2026-04-28 15:23 -8.56237 125.45438 1278 ft 142 kts 78°
2026-04-28 15:24 -8.56018 125.46408 1081 ft 141 kts 78°
2026-04-28 15:24 -8.55795 125.47394 778 ft 144 kts 78°
2026-04-28 15:24 -8.55565 125.48355 505 ft 140 kts 77°
2026-04-28 15:24 -8.55334 125.49284 322 ft 132 kts 78°
2026-04-28 15:25 -8.55138 125.50187 174 ft 132 kts 79°
2026-04-28 15:25 -8.54955 125.51099 48 ft 133 kts 78°
2026-04-28 15:25 -8.54769 125.51966 21 ft 103 kts 78°
2026-04-28 15:25 -8.54692 125.52289 25 ft 0 kts 77°
2026-04-28 15:26 -8.54692 125.52290 25 ft 1 kts 77°
2026-04-28 15:26 -8.54687 125.52310 25 ft 5 kts 77°
2026-04-28 15:26 -8.54692 125.52329 25 ft 1 kts 120°
2026-04-28 15:26 -8.54700 125.52334 24 ft 3 kts 144°
2026-04-28 15:27 -8.54737 125.52354 26 ft 8 kts 157°
2026-04-28 15:27 -8.54781 125.52364 26 ft 7 kts 161°
2026-04-28 15:27 -8.54798 125.52381 26 ft 2 kts 110°
2026-04-28 15:27 -8.54801 125.52424 26 ft 9 kts 86°
2026-04-28 15:28 -8.54811 125.52459 26 ft 1 kts 144°
2026-04-28 15:28 -8.54821 125.52460 26 ft 0 kts 169°